Temperature
10 10 10 10 10 10 10 10 9 9 9 10 10 10 10 10 10 10 10 10 10 10 10 10 10 10 10 10 10 10 11 11 11 11 11 11 11 11 11 11 11 11 11
9 9 9 9 9 9 9 9 9 9 9 9 9 9 9 9 9 9 9 9 9 10 10 10 10 10 10 10 10 10 10 10 10 10 10 10 11 11 11 11 11 11 11
9 9 9 9 9 9 9 9 9 9 9 9 9 9 9 9 9 9 9 9 9 9 9 9 9 9 9 9 9 9 10 10 10 10 10 10 10 10 10 10 10 10 10
8 8 8 8 8 8 8 8 8 8 8 8 8 8 8 8 8 8 8 9 9 9 9 9 9 9 9 9 9 9 9 9 9 10 10 10 10 10 10 10 10 10 10
7 8 8 8 8 8 8 8 8 8 8 8 8 8 8 8 8 8 8 8 8 8 8 8 8 8 9 9 9 9 9 9 9 9 9 9 9 10 10 10 10 10 10
7 7 7 7 7 7 7 7 7 7 7 7 8 8 7 7 7 8 8 7 7 7 7 8 8 8 8 8 8 8 8 9 8 9 9 9 9 9 9 9 10 10 10
7 7 7 7 7 7 7 7 7 7 7 7 7 7 7 7 7 7 7 7 7 7 7 7 7 7 8 8 8 8 8 8 8 8 8 8 8 8 9 9 9 9 9
6 6 6 6 6 6 6 6 6 6 6 6 6 6 6 6 6 6 6 6 6 6 7 7 7 7 7 7 7 7 7 8 8 8 8 8 8 8 8 8 9 9 9
5 5 5 5 5 5 5 5 5 5 6 5 5 5 5 4 5 5 5 6 6 6 6 6 6 6 7 7 7 7 7 7 7 7 7 7 7 8 8 8 8 8 8
4 4 4 4 5 5 5 5 5 5 5 5 5 4 4 4 4 4 5 5 5 5 5 6 6 6 6 6 6 6 7 7 7 7 7 7 7 7 7 8 8 8 8
4 4 4 4 4 4 4 4 4 4 4 4 4 4 4 4 3 3 3 4 4 4 5 5 5 5 5 6 6 6 6 6 6 6 6 6 7 7 7 7 7 7 7
3 3 3 3 3 3 3 3 3 3 4 4 3 3 3 3 3 3 3 3 3 4 4 4 4 5 5 5 5 5 5 5 6 6 6 6 6 6 6 6 7 7 7
3 3 3 3 3 3 3 3 3 3 3 3 3 3 3 3 3 2 2 2 2 3 3 4 4 4 4 4 4 5 5 5 5 5 5 6 6 6 6 6 6 6 6
2 2 2 2 2 2 2 2 2 2 2 2 2 2 2 2 2 2 2 2 2 2 2 3 3 3 3 3 4 4 4 4 4 5 5 5 5 5 5 6 6 6 6
1 2 2 2 1 1 1 1 1 1 1 2 2 2 2 2 2 1 1 1 1 1 1 2 2 3 3 3 3 3 3 4 4 4 4 4 5 5 5 5 5 5 5
1 1 1 1 1 1 1 1 1 1 1 1 1 1 1 1 1 1 1 1 1 0 0 1 1 2 2 2 2 3 3 3 3 3 4 4 4 4 4 4 4 5 5
0 0 0 0 0 0 0 -0 -0 0 0 0 0 0 0 0 0 0 0 0 0 -0 -0 0 1 1 1 1 2 2 2 3 3 3 3 3 3 3 4 4 4 4 4
-0 -0 -0 -0 -0 -1 -1 -1 -1 -1 -1 -1 -1 -1 -1 -1 -1 -1 -0 -0 -1 -1 -1 -1 -0 0 0 1 1 1 1 2 2 2 2 3 3 3 3 3 3 3 3
-1 -1 -1 -1 -1 -1 -1 -1 -1 -1 -1 -1 -1 -1 -1 -1 -1 -1 -1 -1 -1 -1 -1 -1 -1 -1 -1 -0 -0 0 1 1 1 1 2 2 2 2 2 3 3 3 3
-2 -2 -2 -2 -2 -2 -2 -2 -2 -2 -2 -2 -2 -2 -2 -2 -2 -2 -2 -2 -2 -2 -2 -2 -2 -2 -1 -1 -1 -1 -0 0 1 1 1 1 1 2 2 2 2 2 2
-3 -3 -3 -3 -3 -3 -3 -3 -3 -3 -3 -3 -3 -3 -3 -3 -3 -3 -3 -3 -2 -2 -2 -2 -2 -2 -2 -2 -2 -1 -1 -1 -0 0 0 1 1 1 1 1 1 1 2
-4 -4 -4 -4 -4 -4 -4 -4 -4 -4 -4 -4 -4 -3 -3 -3 -3 -3 -3 -3 -3 -3 -3 -3 -3 -3 -2 -2 -2 -2 -2 -2 -1 -1 -0 0 0 0 1 1 1 1 1
-5 -5 -5 -5 -5 -4 -4 -5 -5 -5 -5 -5 -4 -4 -4 -4 -4 -4 -4 -4 -4 -4 -4 -3 -3 -3 -3 -3 -3 -2 -2 -2 -2 -1 -1 -1 -1 -0 0 0 0 0 1
-5 -5 -5 -5 -5 -5 -5 -5 -5 -6 -5 -5 -5 -5 -5 -5 -4 -5 -4 -4 -4 -4 -4 -4 -4 -3 -3 -3 -3 -3 -3 -3 -3 -2 -2 -2 -1 -1 -1 -0 -0 -0 -0
-6 -6 -6 -6 -6 -6 -6 -6 -6 -6 -6 -6 -6 -6 -6 -6 -5 -5 -5 -5 -5 -4 -4 -4 -4 -4 -4 -3 -3 -3 -3 -3 -3 -3 -2 -3 -2 -2 -1 -1 -1 -1 -1
-7 -7 -7 -7 -7 -7 -7 -6 -7 -7 -7 -7 -6 -6 -6 -6 -6 -6 -6 -6 -5 -5 -5 -4 -4 -4 -4 -4 -4 -4 -4 -4 -4 -4 -3 -3 -3 -3 -3 -2 -2 -1 -1
Wind_Speed
4 5 5 5 5 5 5 4 4 5 5 6 7 7 6 6 7 7 6 7 6 6 6 5 6 6 7 6 6 5 4 4 4 4 5 5 5 4 5 5 4 4 5
5 4 4 5 5 5 5 4 5 4 4 5 6 6 6 6 6 6 6 5 6 5 5 6 5 5 6 6 5 5 5 4 3 4 4 5 4 3 3 3 3 3 4
5 5 4 4 5 5 5 5 5 5 4 5 5 5 5 5 5 4 5 4 4 5 5 5 5 4 4 5 5 3 3 3 3 3 3 3 3 3 3 3 2 2 2
6 5 4 4 5 5 5 4 3 3 3 3 3 3 4 3 3 4 4 5 4 4 4 4 5 4 4 3 4 3 2 2 2 2 1 2 2 2 2 1 1 1 1
6 5 4 5 5 4 4 3 3 2 2 3 3 2 2 2 2 3 4 4 3 4 4 3 3 4 4 3 3 4 2 1 0 1 1 1 1 1 1 0 0 1 1
7 6 5 5 5 3 3 3 3 3 2 2 2 2 2 1 2 2 2 3 3 3 3 3 3 2 3 3 3 4 3 1 1 1 0 1 1 1 1 1 2 2 2
7 6 5 5 5 3 3 3 2 2 2 2 2 2 2 1 1 2 2 3 4 4 3 2 2 1 1 2 3 3 3 2 1 1 2 2 3 3 3 3 2 3 3
6 5 5 3 3 3 3 3 3 2 1 2 1 1 1 2 2 2 2 2 3 4 4 4 4 3 2 1 1 3 3 3 2 2 2 2 3 4 4 4 4 3 3
5 5 4 4 3 2 1 1 2 2 1 2 2 1 1 1 2 1 1 2 3 3 3 3 3 4 3 2 1 2 3 4 3 4 4 4 5 5 6 6 6 6 5
4 4 4 3 3 2 2 1 2 1 1 1 2 2 1 0 0 1 2 1 3 3 3 3 3 3 2 2 2 3 4 4 4 5 6 6 6 6 6 7 7 8 7
3 3 3 3 2 2 2 2 2 1 1 0 1 1 2 1 1 1 2 3 3 3 2 2 2 2 2 2 2 3 5 5 6 5 6 6 7 7 7 6 7 8 8
2 2 2 2 2 2 1 1 1 1 1 1 1 1 1 1 1 1 2 3 4 3 3 2 2 2 2 1 2 5 6 6 6 6 7 7 8 7 8 8 7 8 9
1 0 1 1 1 1 1 1 1 1 1 1 1 1 1 2 2 2 3 3 4 4 3 2 2 2 2 2 3 5 6 7 7 7 7 7 7 7 7 8 9 9 10
1 0 1 1 1 1 1 1 1 2 2 1 2 2 2 2 2 2 2 3 4 4 3 3 2 2 2 2 4 6 6 8 9 9 8 8 7 7 7 7 9 9 10
0 0 1 1 2 2 2 1 1 2 2 2 2 3 2 2 2 3 3 3 3 4 5 3 2 2 3 4 5 6 7 9 10 10 9 9 8 8 8 8 8 8 8
0 1 1 1 2 2 2 2 2 2 2 3 2 3 3 3 3 3 3 3 3 4 6 4 3 3 4 6 8 8 8 10 11 11 11 10 9 9 9 9 8 8 9
0 1 2 2 3 3 3 2 3 3 3 3 3 4 4 4 4 3 3 4 4 4 7 6 4 3 4 4 6 8 9 9 9 11 12 12 10 10 9 9 9 9 9
1 2 2 3 3 3 3 3 4 4 4 4 4 4 5 4 5 4 4 5 5 5 6 7 6 4 5 5 5 5 7 8 9 12 12 12 11 11 10 10 10 10 10
2 3 3 3 3 3 4 4 4 5 5 5 5 5 5 5 6 5 5 5 5 5 5 6 6 4 4 4 4 5 6 7 9 10 11 11 11 11 11 11 11 11 10
2 3 4 4 4 4 5 5 4 5 5 5 5 5 5 6 6 6 6 6 6 6 6 6 6 5 5 4 4 5 5 5 6 7 9 10 11 12 12 11 11 10 10
4 3 4 4 5 5 5 5 5 5 5 5 6 6 7 7 9 8 7 6 6 6 6 7 6 6 5 4 5 4 6 5 6 5 5 7 8 8 9 11 12 12 12
3 3 4 5 5 6 8 9 7 6 6 6 7 7 7 8 10 11 12 12 10 9 8 8 7 8 8 6 5 5 5 6 7 3 4 7 6 6 8 9 12 13 13
4 4 5 5 6 7 10 10 10 7 6 7 7 7 8 8 9 8 10 11 12 13 13 11 10 10 9 8 7 8 7 8 8 5 4 7 5 7 8 10 12 12 13
4 5 6 6 6 8 10 11 11 7 7 8 8 8 9 8 9 9 8 9 9 10 11 11 11 11 10 9 9 9 9 9 8 6 5 7 6 7 7 9 11 12 12
5 5 6 6 7 8 10 11 10 6 7 8 9 9 9 9 12 12 10 10 10 10 12 14 15 15 15 15 13 7 7 7 8 7 4 5 5 5 5 6 9 11 12
5 6 6 6 7 8 11 12 11 6 7 8 8 8 11 12 13 13 9 9 10 10 9 9 11 13 12 13 14 11 9 8 7 7 5 5 4 3 4 4 5 6 8
Wind_Direction
47 49 47 48 43 42 40 24 25 37 35 36 45 46 46 49 53 57 63 69 67 61 59 58 64 61 55 55 57 55 61 69 78 81 78 85 92 91 87 88 101 108 110
56 48 46 44 38 38 35 27 33 32 32 40 42 36 39 49 57 63 63 65 60 56 56 53 56 58 54 49 54 53 54 58 71 84 81 79 85 97 103 94 95 112 126
55 51 45 43 30 32 36 35 38 38 37 40 39 30 30 41 48 55 61 69 61 55 53 49 46 48 50 41 36 41 49 55 63 75 94 94 89 85 98 99 100 121 147
58 56 46 43 35 39 36 32 36 45 38 31 23 20 23 31 44 53 53 60 64 62 53 47 41 36 39 42 25 18 28 37 59 71 92 107 101 90 95 104 126 119 146
52 58 51 44 38 43 41 34 33 40 41 29 16 17 19 16 33 53 52 47 59 68 62 48 40 27 21 22 2 354 350 354 4 84 86 95 97 99 86 67 188 206 208
48 51 51 45 40 43 41 41 42 35 48 25 11 12 348 343 43 56 46 35 48 60 60 52 47 22 5 3 351 353 350 347 294 250 233 245 244 248 246 267 268 248 227
51 50 46 43 40 45 37 44 54 48 37 34 41 9 344 342 57 35 42 39 36 36 39 43 53 53 28 341 340 351 347 329 315 270 249 249 256 258 258 262 271 257 255
52 48 48 40 41 49 46 47 55 38 14 23 47 39 359 344 11 353 9 27 20 22 20 18 22 25 53 73 6 353 356 342 309 281 265 258 260 260 261 258 269 271 269
55 51 48 40 36 47 62 54 57 64 43 1 29 73 109 240 319 305 332 5 9 359 1 3 5 11 19 46 51 358 327 315 299 272 268 265 267 262 263 261 259 262 256
56 52 49 46 40 39 38 23 40 51 81 14 1 17 5 143 214 299 300 331 347 335 335 340 348 347 356 27 18 356 330 312 298 282 273 268 269 267 269 264 260 257 252
66 56 47 44 40 39 38 26 18 29 51 356 327 332 332 337 265 241 280 302 320 300 301 313 323 339 334 350 344 332 325 308 297 288 285 280 275 272 271 271 268 261 256
86 53 40 38 33 30 25 8 4 350 331 301 295 293 288 295 298 287 281 300 300 288 279 272 271 279 281 296 304 324 317 304 295 288 282 280 279 276 271 270 269 269 263
74 72 9 16 8 0 344 340 314 290 282 273 266 270 271 263 278 285 279 288 297 295 269 253 238 234 256 278 302 311 307 301 295 287 282 280 280 278 278 276 272 272 266
189 196 342 332 319 311 301 307 284 280 276 257 275 269 268 268 263 263 265 278 292 291 272 260 257 227 249 274 295 300 296 293 296 290 281 280 280 277 276 279 276 272 273
193 215 296 299 298 297 286 286 253 264 273 261 253 259 266 265 260 265 263 249 249 274 274 259 255 246 285 289 293 297 292 292 292 291 281 274 273 273 274 276 277 278 281
351 234 248 264 275 282 277 262 253 256 257 263 260 257 263 266 266 263 263 261 252 250 265 264 266 285 292 292 286 287 287 291 290 288 283 270 267 267 268 271 272 273 275
251 251 257 253 251 252 259 249 249 251 253 260 262 261 261 265 266 263 267 263 257 250 264 279 273 271 262 271 285 283 281 278 281 282 281 271 265 263 264 267 270 269 270
248 263 267 261 260 262 255 245 247 252 250 255 258 259 262 265 263 265 262 261 259 254 253 268 275 270 265 259 261 272 283 280 278 278 277 270 265 262 262 263 265 265 265
252 264 264 259 260 261 260 257 247 248 249 251 253 254 258 258 262 263 264 265 263 264 259 261 266 266 268 268 269 275 277 278 278 278 275 270 263 263 264 263 262 261 262
247 253 263 264 266 267 265 264 261 254 252 255 257 259 260 255 257 261 262 259 263 263 265 264 260 263 264 263 256 267 276 270 274 280 278 274 268 264 262 260 261 261 263
258 257 261 265 268 268 262 260 261 260 258 261 262 261 261 259 260 260 262 261 261 260 263 262 258 261 259 259 256 260 268 276 275 267 275 270 266 260 261 261 261 261 263
255 256 257 260 263 267 268 269 269 262 261 263 267 268 266 262 264 265 265 265 262 260 258 257 256 255 257 255 255 258 265 273 277 259 264 269 258 254 258 261 262 262 261
254 258 258 258 261 261 265 267 267 265 258 258 262 267 270 266 268 265 269 270 267 264 260 259 256 254 257 255 253 254 253 258 263 264 273 267 253 255 259 264 262 260 262
252 256 259 256 260 260 264 267 271 269 263 261 259 258 261 265 263 265 265 267 264 262 260 257 257 259 257 254 247 250 251 259 267 264 252 258 259 259 265 259 257 258 261
262 260 261 256 255 262 264 265 268 265 264 265 263 260 258 258 263 266 267 266 268 266 266 265 265 264 262 260 255 254 254 255 265 263 237 245 259 269 263 253 256 256 257
266 268 269 263 256 257 263 264 265 258 261 265 265 262 259 260 265 266 265 264 267 270 272 273 271 271 268 262 255 243 240 245 258 261 239 236 248 263 273 256 250 254 260
Height
1537 1538 1538 1540 1540 1541 1542 1543 1543 1544 1545 1545 1546 1546 1546 1547 1547 1548 1549 1549 1550 1551 1551 1552 1552 1552 1552 1553 1553 1554 1554 1555 1555 1556 1556 1557 1558 1559 1560 1560 1561 1562 1562
1536 1537 1538 1539 1539 1540 1541 1542 1542 1543 1543 1544 1544 1545 1545 1546 1546 1547 1548 1548 1549 1549 1550 1550 1551 1551 1551 1552 1552 1553 1553 1554 1554 1554 1555 1556 1556 1557 1558 1559 1560 1561 1561
1535 1536 1537 1538 1539 1540 1540 1541 1541 1542 1542 1542 1543 1544 1544 1544 1545 1546 1546 1547 1547 1548 1548 1549 1549 1550 1550 1550 1551 1551 1552 1552 1552 1553 1553 1554 1555 1556 1557 1558 1558 1559 1560
1533 1535 1536 1536 1537 1538 1539 1539 1540 1540 1540 1541 1541 1542 1542 1543 1543 1544 1545 1545 1546 1546 1547 1547 1548 1548 1549 1549 1549 1549 1550 1550 1550 1551 1551 1552 1553 1554 1555 1556 1556 1557 1558
1532 1533 1534 1535 1536 1536 1537 1538 1538 1539 1539 1539 1539 1540 1541 1541 1542 1542 1543 1544 1544 1544 1545 1545 1546 1546 1546 1547 1547 1547 1547 1547 1548 1548 1549 1549 1550 1551 1553 1554 1554 1555 1556
1530 1531 1532 1533 1534 1535 1535 1536 1537 1537 1537 1538 1538 1538 1539 1540 1540 1541 1541 1542 1542 1542 1543 1543 1543 1544 1544 1544 1545 1545 1545 1545 1545 1546 1546 1547 1548 1549 1550 1551 1552 1553 1554
1528 1529 1530 1531 1532 1533 1533 1534 1535 1535 1535 1536 1536 1536 1537 1538 1539 1539 1540 1540 1540 1541 1541 1541 1541 1541 1542 1542 1542 1542 1542 1542 1543 1543 1544 1545 1545 1546 1547 1548 1549 1550 1551
1526 1527 1528 1529 1530 1531 1531 1532 1533 1533 1534 1534 1535 1534 1535 1537 1536 1537 1538 1538 1538 1538 1538 1538 1539 1539 1539 1539 1539 1539 1539 1540 1540 1540 1541 1542 1542 1543 1544 1545 1546 1546 1547
1523 1525 1526 1527 1528 1528 1529 1530 1530 1531 1531 1533 1533 1534 1534 1533 1533 1534 1534 1535 1535 1536 1536 1536 1536 1536 1536 1536 1536 1536 1536 1537 1537 1537 1538 1538 1539 1540 1540 1541 1542 1543 1544
1521 1522 1523 1524 1525 1526 1526 1527 1528 1528 1529 1530 1531 1532 1533 1532 1533 1531 1531 1532 1532 1532 1533 1533 1533 1533 1533 1533 1533 1533 1533 1534 1534 1534 1534 1535 1535 1536 1537 1537 1538 1539 1539
1519 1520 1520 1521 1522 1523 1524 1524 1525 1526 1527 1527 1528 1529 1529 1530 1530 1530 1528 1528 1528 1529 1529 1529 1529 1529 1530 1530 1530 1530 1530 1530 1530 1530 1530 1531 1531 1532 1532 1533 1533 1534 1535
1516 1517 1517 1518 1519 1520 1521 1521 1522 1523 1524 1524 1525 1526 1526 1527 1527 1528 1527 1525 1524 1525 1525 1525 1525 1526 1526 1526 1526 1526 1527 1526 1526 1526 1527 1526 1526 1527 1527 1528 1528 1529 1530
1512 1513 1514 1515 1516 1517 1517 1518 1519 1520 1520 1521 1522 1523 1523 1524 1525 1525 1524 1523 1522 1521 1521 1521 1522 1522 1522 1522 1522 1522 1522 1522 1522 1522 1522 1522 1522 1522 1522 1523 1523 1524 1525
1509 1510 1511 1512 1512 1513 1514 1514 1515 1516 1516 1517 1518 1519 1519 1520 1521 1521 1521 1521 1519 1517 1517 1517 1518 1518 1518 1518 1518 1518 1518 1518 1517 1517 1517 1517 1517 1517 1517 1517 1518 1519 1519
1506 1506 1507 1508 1508 1509 1510 1510 1511 1511 1512 1513 1513 1514 1515 1515 1516 1517 1517 1517 1517 1514 1512 1512 1513 1514 1514 1514 1514 1513 1513 1513 1513 1512 1512 1512 1512 1512 1512 1512 1513 1513 1514
1502 1503 1503 1504 1504 1505 1505 1506 1506 1507 1507 1508 1509 1509 1510 1510 1511 1511 1512 1512 1512 1512 1509 1507 1508 1509 1509 1509 1509 1508 1508 1508 1507 1507 1507 1507 1507 1507 1507 1507 1507 1508 1509
1498 1498 1499 1499 1500 1500 1500 1501 1501 1502 1502 1503 1504 1504 1504 1505 1505 1506 1507 1507 1507 1507 1505 1503 1504 1504 1503 1503 1503 1503 1502 1502 1502 1502 1502 1501 1501 1501 1501 1502 1502 1502 1503
1493 1494 1494 1494 1495 1495 1496 1496 1496 1497 1497 1498 1498 1499 1499 1500 1500 1500 1501 1501 1501 1502 1501 1498 1498 1498 1498 1498 1497 1497 1496 1496 1496 1496 1496 1496 1496 1496 1496 1497 1497 1497 1497
1489 1489 1489 1490 1490 1490 1490 1491 1491 1492 1492 1493 1493 1493 1494 1494 1494 1495 1495 1495 1496 1496 1495 1494 1492 1492 1492 1492 1492 1491 1491 1490 1490 1490 1490 1490 1490 1490 1490 1491 1491 1491 1491
1484 1484 1484 1485 1485 1485 1485 1485 1486 1486 1486 1487 1487 1488 1488 1488 1489 1489 1489 1490 1490 1490 1489 1488 1487 1486 1486 1486 1486 1485 1484 1484 1484 1484 1484 1484 1484 1484 1484 1485 1485 1485 1486
1478 1479 1479 1479 1479 1479 1479 1480 1480 1480 1481 1481 1481 1482 1482 1483 1483 1484 1484 1484 1484 1484 1483 1482 1481 1480 1480 1480 1480 1480 1479 1478 1477 1478 1477 1478 1478 1477 1477 1478 1478 1478 1479
1473 1474 1474 1474 1474 1474 1474 1475 1475 1475 1475 1475 1475 1475 1476 1476 1477 1477 1477 1477 1478 1478 1477 1476 1475 1474 1473 1474 1475 1474 1474 1473 1470 1472 1472 1471 1471 1470 1470 1471 1471 1472 1472
1468 1468 1468 1468 1468 1468 1469 1469 1470 1470 1469 1469 1469 1469 1469 1470 1470 1470 1470 1470 1470 1470 1471 1471 1469 1467 1468 1468 1469 1468 1467 1466 1465 1465 1466 1463 1464 1464 1464 1464 1464 1465 1466
1463 1462 1462 1462 1463 1463 1463 1463 1464 1464 1463 1463 1463 1463 1463 1463 1463 1463 1463 1462 1462 1462 1463 1463 1462 1461 1461 1462 1462 1462 1461 1460 1459 1459 1460 1457 1456 1457 1457 1457 1458 1458 1459
1457 1457 1457 1457 1457 1456 1457 1458 1458 1458 1457 1457 1457 1457 1456 1456 1456 1456 1456 1455 1455 1455 1456 1456 1455 1454 1454 1454 1455 1455 1454 1453 1450 1450 1452 1451 1449 1449 1449 1449 1450 1451 1452
1452 1451 1451 1451 1451 1451 1451 1452 1452 1452 1451 1450 1450 1450 1450 1449 1450 1450 1450 1449 1448 1447 1448 1447 1446 1446 1446 1446 1446 1447 1446 1446 1444 1443 1443 1444 1443 1443 1441 1441 1443 1444 1444